Weather History for Hanford, WA

Change the Weather History Date:

Tuesday, February 19, 2013

  Actual Average Record
Temperature  
Mean Temperature 38 °F -  
Max Temperature 47 °F 47 °F 58 °F (2002)
Min Temperature 30 °F 29 °F 6 °F (2006)
Degree Days  
Heating Degree Days 26    
Moisture  
Dew Point 27 °F    
Average Humidity 69    
Maximum Humidity 89    
Minimum Humidity 42    
Precipitation  
Precipitation 0.00 in - - ()
Sea Level Pressure  
Sea Level Pressure 29.81 in    
Wind  
Wind Speed 8 mph (NW)    
Max Wind Speed 12 mph    
Max Gust Speed -    
Visibility 15 miles    
Events      
Averages and records for this station are not official NWS values.
T = Trace of Precipitation, MM = Missing Value Source: NWS Daily Summary

Daily Weather History Graph

Daily Weather History Graph

Search for Another Location

Airport:

Trip Planner

Search our weather history database for the weather conditions in past years. The results will help you decide how hot, cold, wet, or windy it might be!

Date:

Astronomy

Feb. 19, 2013 Rise Set
Actual Time 6:54 AM PST 5:30 PM PST
Civil Twilight 6:24 AM PST 6:01 PM PST
Nautical Twilight 5:48 AM PST 6:36 PM PST
Astronomical Twilight 5:14 AM PST 7:11 PM PST
Moon 11:54 AM PST (2/19) 2:42 AM PST (2/19)
Length of Visible Light 11h 36m
Length of Day
10h 35m
Waxing Gibbous, 68% of the Moon is Illuminated
Feb 19
Waxing Gibbous
Feb 25
Full
Mar 4
Last Quarter
Mar 11
New
Mar 19
First Quarter

Hourly Weather History & Observations

Time (PST) Temp. Windchill Dew Point Humidity Pressure Visibility Wind Dir Wind Speed Gust Speed Precip Events Conditions
1:50 AM 31.1 °F 23.7 °F 27.0 °F 85% 29.77 in 15.0 mi NW 8.1 mph - N/A   Overcast
2:50 AM 30.0 °F 21.7 °F 27.1 °F 89% 29.77 in 15.0 mi NW 9.2 mph - N/A   Mostly Cloudy
3:50 AM 31.5 °F 23.5 °F 27.3 °F 85% 29.77 in 15.0 mi WNW 9.2 mph - N/A   Mostly Cloudy
4:50 AM 30.0 °F 23.2 °F 26.6 °F 87% 29.77 in 15.0 mi West 6.9 mph - N/A   Mostly Cloudy
5:50 AM 30.9 °F 25.2 °F 26.6 °F 84% 29.77 in 15.0 mi West 5.8 mph - N/A   Overcast
6:50 AM 32.4 °F 25.3 °F 27.3 °F 82% 29.77 in 15.0 mi WNW 8.1 mph - N/A   Overcast
7:50 AM 34.7 °F 28.8 °F 28.4 °F 78% 29.78 in 15.0 mi WNW 6.9 mph - N/A   Overcast
8:50 AM 37.6 °F 32.3 °F 29.3 °F 72% 29.78 in 15.0 mi West 6.9 mph - N/A   Overcast
9:50 AM 40.8 °F 35.6 °F 28.6 °F 62% 29.80 in 15.0 mi WNW 8.1 mph - N/A   Mostly Cloudy
10:50 AM 43.7 °F 39.1 °F 28.4 °F 55% 29.80 in 15.0 mi WNW 8.1 mph - N/A   Partly Cloudy
11:50 AM 45.5 °F 40.8 °F 28.0 °F 51% 29.80 in 15.0 mi North 9.2 mph - N/A   Partly Cloudy
12:50 PM 47.1 °F - 25.9 °F 44% 29.80 in 15.0 mi NNW 11.5 mph - N/A   Partly Cloudy
1:50 PM 46.0 °F 42.5 °F 26.4 °F 46% 29.80 in 15.0 mi NNW 6.9 mph - N/A   Partly Cloudy
2:50 PM 47.1 °F - 25.2 °F 42% 29.80 in 15.0 mi NNW 6.9 mph - N/A   Partly Cloudy
4:50 PM 43.7 °F 41.1 °F 27.1 °F 52% 29.82 in 15.0 mi NE 4.6 mph - N/A   Scattered Clouds
5:50 PM 36.7 °F - 24.3 °F 61% 29.83 in 15.0 mi ENE 2.3 mph - N/A   Mostly Cloudy
6:50 PM 38.7 °F 35.2 °F 25.3 °F 59% 29.85 in 15.0 mi NNW 4.6 mph - N/A   Overcast
9:50 PM 36.3 °F 30.8 °F 31.1 °F 81% 29.91 in 15.0 mi WSW 6.9 mph - N/A   Mostly Cloudy
10:50 PM 34.9 °F 30.8 °F 29.8 °F 82% 29.92 in 15.0 mi West 4.6 mph - N/A   Mostly Cloudy
11:50 PM 33.8 °F 26.4 °F 29.3 °F 84% 29.94 in 15.0 mi SW 9.2 mph - N/A   Mostly Cloudy